Starlink 34931

operational
NORAD ID: 65398 Int'l Des: 2025-191 Owner: SPXS Country: US Constellation: starlink
LEOCIRCULARRETROGRADE

关于 Starlink 34931

正在加载描述...

实时位置

正在加载3D地球...

即将过境

高度历史

Altitude vs Time

uPlot chart will show altitude changes over time

两行轨道根数

1 65398U 25191V 25340.89441982 .00010906 00000-0 75863-3 0 9996
2 65398 97.6035 210.0188 0002506 87.0940 273.0574 15.05661356 16300
Epoch: Dec 6, 2025 • Age: 20 hours

当前状态

高度 561.2 km
速度 7.59 km/s
星下点 81.61°N, 122.93°E
发射日期 Aug 30, 2025
运行时间 0.2 years
类型 internet

技术详情

分类 Payload
质量 575.00 kg
干质量 530.00 kg
总质量 575.00 kg
长度 0.30 m
直径 4.10 m
跨度 29.00 m
形状 Box + pan
制造商 SPXS
平台类型 Starlink V2MO
阶段状态 In Orbit
所有者/国家 SPXS/US

大型星座

Loading constellations...